Home > Weather > Lagos > Past weeks

Flag for Nigeria Past Weather in Lagos, Nigeria — Yesterday and Last 2 Weeks

Now
79 °F

Passing clouds.


Feels Like: 82 °F
Forecast: 76 / 89 °F
Wind: 8 mph from Southwest

Location: Lagos / Ikeja

Current Time: May 28, 2016 at 11:01:56 AM

Latest Report: May 28, 2016 at 10:00 AM


Visibility: 5 mi

Pressure: 29.98 "Hg

Humidity: 89%

Dew Point: 75 °F

Location of LagosLocation

Past Weather in Lagos — Graph

°F

Lagos Temperature Yesterday

Maximum temperature yesterday: 90 °F (at 12:00 PM)
Minimum temperature yesterday: 79 °F (at 3:00 AM)
Average temperature yesterday: 84 °F

High & Low Weather Summary for the Past Weeks

 TemperatureHumidityPressure
High91 °F (May 13, 1:00 PM)100% (May 15, 5:00 PM)30.07 "Hg (May 15, 5:00 PM)
Low72 °F (May 21, 4:00 PM)63% (May 13, 1:00 PM)29.68 "Hg (May 16, 9:00 PM)
Average82 °F86%29.96 "Hg
* Reported May 13 9:00 AM — May 28 9:00 AM, Lagos, Weather by CustomWeather, © 2016

Note: Actual official high and low records may vary slightly from our data, if they occured in-between our weather recording intervals... More about our weather records

Advertising

Lagos Weather History for the Previous 24 Hours

Scroll right to see more
 ConditionsComfort  
Time TempWeatherWind HumidityBarometerVisibility
9:00 AM
Sat, May 28
79 °FPassing clouds.3 mph89%30.01 "Hg4 mi
8:00 AM79 °FPassing clouds.2 mph89%30.04 "Hg4 mi
7:00 AM77 °FThunderstorms. Passing clouds.No wind94%30.04 "Hg5 mi
6:00 AM77 °FThunderstorms. Passing clouds.2 mph89%30.01 "Hg5 mi
5:00 AM77 °FThunderstorms. Passing clouds.No wind94%30.01 "Hg5 mi
4:00 AM79 °FThunderstorms. Passing clouds.14 mph94%30.01 "Hg5 mi
3:00 AM79 °FThunderstorms. Passing clouds.No wind94%29.98 "HgN/A
2:00 AM81 °FThunderstorms. Passing clouds.No wind89%30.01 "HgN/A
1:00 AM81 °FPassing clouds.2 mph89%30.01 "HgN/A
12:00 AM81 °FPassing clouds.2 mph89%30.01 "HgN/A
11:00 PM
Fri, May 27
82 °FPassing clouds.2 mph84%30.01 "HgN/A
10:00 PM82 °FPassing clouds.3 mph84%30.01 "HgN/A
9:00 PM82 °FPassing clouds.6 mph84%29.95 "HgN/A
8:00 PM82 °FPassing clouds.5 mph84%29.95 "HgN/A
7:00 PM84 °FPassing clouds.6 mph84%29.92 "HgN/A
6:00 PM86 °FPassing clouds.6 mph75%29.92 "HgN/A
5:00 PM88 °FScattered clouds.7 mph70%29.92 "HgN/A
4:00 PM90 °FScattered clouds.5 mph71%29.95 "HgN/A
3:00 PM90 °FScattered clouds.5 mph71%29.95 "HgN/A
2:00 PM90 °FPartly sunny.7 mph71%29.98 "HgN/A
1:00 PM90 °FPartly sunny.7 mph71%29.98 "HgN/A
12:00 PM90 °FPartly sunny.8 mph67%30.01 "HgN/A
11:00 AM86 °FPartly sunny.9 mph79%30.01 "HgN/A
Weather by CustomWeather, © 2016

See weather overviewHow to use our weather pages